TimeEDT,TemperatureF,Dew PointF,Humidity,Sea Level PressureIn,VisibilityMPH,Wind Direction,Wind SpeedMPH,Gust SpeedMPH,PrecipitationIn,Events,Conditions,WindDirDegrees,DateUTC
12:19 AM,62.6,55.4,77,29.93,10.0,Calm,Calm,-,N/A,,Mostly Cloudy,0,2012-10-19 04:19:00
12:51 AM,62.1,55.9,80,29.92,10.0,NE,4.6,-,0.00,Rain,Light Rain,40,2012-10-19 04:51:00
1:01 AM,62.6,55.4,77,29.92,10.0,NE,3.5,-,0.00,Rain,Light Rain,40,2012-10-19 05:01:00
1:11 AM,62.6,55.4,77,29.91,10.0,East,5.8,-,N/A,Rain,Light Rain,80,2012-10-19 05:11:00
1:29 AM,64.4,57.2,77,29.91,10.0,ESE,9.2,-,0.00,Rain,Light Rain,120,2012-10-19 05:29:00
1:51 AM,64.0,57.9,80,29.90,10.0,East,11.5,-,0.00,Rain,Light Rain,100,2012-10-19 05:51:00
2:36 AM,66.2,60.8,83,29.89,10.0,SSE,15.0,21.9,0.00,Rain,Light Rain,160,2012-10-19 06:36:00
2:51 AM,64.9,59.0,81,29.88,10.0,SSE,11.5,24.2,0.00,Rain,Light Rain,160,2012-10-19 06:51:00
3:30 AM,64.4,59.0,83,29.87,10.0,SSE,13.8,20.7,0.00,Rain,Light Rain,160,2012-10-19 07:30:00
3:51 AM,64.9,60.1,84,29.86,10.0,SSE,13.8,25.3,0.00,Rain,Light Rain,160,2012-10-19 07:51:00
4:06 AM,64.4,60.8,88,29.85,10.0,SSE,12.7,21.9,0.00,Rain,Light Rain,150,2012-10-19 08:06:00
4:51 AM,64.9,61.0,87,29.85,10.0,SE,11.5,20.7,0.00,,Overcast,140,2012-10-19 08:51:00
5:13 AM,64.4,60.8,88,29.85,10.0,SSE,9.2,16.1,N/A,,Overcast,150,2012-10-19 09:13:00
5:21 AM,64.4,60.8,88,29.85,10.0,SE,12.7,18.4,N/A,,Overcast,140,2012-10-19 09:21:00
5:28 AM,64.4,60.8,88,29.85,10.0,SE,10.4,19.6,N/A,,Overcast,130,2012-10-19 09:28:00
5:40 AM,64.4,60.8,88,29.85,10.0,ESE,10.4,17.3,N/A,,Overcast,120,2012-10-19 09:40:00
5:51 AM,64.9,61.0,87,29.84,10.0,ESE,8.1,-,0.00,Rain,Light Rain,110,2012-10-19 09:51:00
6:43 AM,62.6,60.8,94,29.83,4.0,ESE,13.8,19.6,0.05,Rain,Light Rain,120,2012-10-19 10:43:00
6:51 AM,64.0,61.0,90,29.83,5.0,ESE,9.2,20.7,0.06,Rain,Light Rain,110,2012-10-19 10:51:00
6:59 AM,66.2,60.8,83,29.83,6.0,SE,12.7,20.7,0.00,Rain,Light Rain,140,2012-10-19 10:59:00
7:27 AM,64.4,60.8,88,29.83,6.0,SE,11.5,21.9,0.00,,Overcast,130,2012-10-19 11:27:00
7:51 AM,66.0,62.1,87,29.83,8.0,SE,15.0,18.4,0.00,,Overcast,130,2012-10-19 11:51:00
8:04 AM,66.2,60.8,83,29.82,3.0,SE,11.5,27.6,0.00,Rain,Light Rain,130,2012-10-19 12:04:00
8:17 AM,66.2,62.6,88,29.82,3.0,SE,9.2,-,0.00,Rain,Light Rain,140,2012-10-19 12:17:00
8:40 AM,66.2,62.6,88,29.83,2.0,South,11.5,19.6,0.00,Rain,Light Rain,180,2012-10-19 12:40:00
8:42 AM,66.2,62.6,88,29.83,1.0,South,11.5,-,0.01,Rain,Heavy Rain,170,2012-10-19 12:42:00
8:51 AM,64.9,62.1,90,29.83,1.8,SSE,10.4,-,0.06,Rain,Heavy Rain,150,2012-10-19 12:51:00
9:02 AM,66.2,62.6,88,29.81,1.8,SSE,18.4,26.5,0.09,Rain,Rain,150,2012-10-19 13:02:00
9:07 AM,66.2,62.6,88,29.81,3.0,SSE,12.7,26.5,0.11,Rain,Rain,160,2012-10-19 13:07:00
9:28 AM,66.2,62.6,88,29.82,5.0,SSE,9.2,-,0.14,Rain,Light Rain,160,2012-10-19 13:28:00
9:51 AM,66.0,62.1,87,29.81,5.0,SSE,12.7,24.2,0.15,Rain,Light Rain,160,2012-10-19 13:51:00
10:17 AM,71.6,62.6,73,29.80,5.0,SSE,11.5,21.9,0.00,Rain,Light Rain,150,2012-10-19 14:17:00
10:24 AM,66.2,62.6,88,29.79,5.0,SSE,12.7,21.9,0.00,Rain,Light Rain,150,2012-10-19 14:24:00
10:51 AM,66.0,62.1,87,29.79,5.0,SSE,16.1,24.2,0.00,,Overcast,150,2012-10-19 14:51:00
11:43 AM,66.2,64.4,94,29.77,2.0,South,15.0,25.3,0.03,Rain,Light Rain,170,2012-10-19 15:43:00
11:45 AM,66.2,64.4,94,29.77,1.0,South,12.7,25.3,0.03,Rain,Light Rain,170,2012-10-19 15:45:00
11:51 AM,66.0,64.0,93,29.77,1.5,SSE,12.7,20.7,0.05,Rain,Rain,160,2012-10-19 15:51:00
12:23 PM,66.2,64.4,94,29.77,1.0,South,9.2,-,0.21,Rain,Heavy Rain,170,2012-10-19 16:23:00
12:29 PM,66.2,64.4,94,29.76,3.0,South,9.2,-,0.26,Rain,Heavy Rain,180,2012-10-19 16:29:00
12:51 PM,66.0,64.0,93,29.76,1.8,SSE,10.4,-,0.38,Rain,Heavy Rain,160,2012-10-19 16:51:00
1:06 PM,66.2,64.4,94,29.75,3.0,South,13.8,20.7,N/A,Rain,Light Rain,170,2012-10-19 17:06:00
1:24 PM,66.2,64.4,94,29.74,2.0,SSE,11.5,-,0.19,Rain,Rain,160,2012-10-19 17:24:00
1:32 PM,66.2,64.4,94,29.74,3.0,South,11.5,19.6,0.22,Rain,Rain,170,2012-10-19 17:32:00
1:39 PM,66.2,64.4,94,29.74,3.0,SSE,13.8,-,0.23,Rain,Light Rain,150,2012-10-19 17:39:00
1:46 PM,66.2,64.4,94,29.74,4.0,SSE,12.7,20.7,0.23,Rain,Light Rain,160,2012-10-19 17:46:00
1:51 PM,66.9,64.0,90,29.73,4.0,SSE,15.0,20.7,0.23,Rain,Light Rain,160,2012-10-19 17:51:00
2:00 PM,66.2,64.4,94,29.73,5.0,SSE,11.5,19.6,0.01,,Overcast,160,2012-10-19 18:00:00
2:51 PM,69.1,64.0,84,29.72,5.0,SSE,11.5,-,0.01,,Haze,160,2012-10-19 18:51:00
2:59 PM,69.8,64.4,83,29.71,6.0,SSE,11.5,21.9,N/A,,Overcast,150,2012-10-19 18:59:00
3:51 PM,68.0,64.0,87,29.71,5.0,SSE,9.2,-,N/A,,Overcast,160,2012-10-19 19:51:00
3:58 PM,69.8,64.4,83,29.71,5.0,SSE,9.2,-,N/A,,Overcast,160,2012-10-19 19:58:00
4:51 PM,68.0,64.0,87,29.68,6.0,SSE,8.1,-,N/A,,Overcast,150,2012-10-19 20:51:00
5:19 PM,68.0,64.4,88,29.67,7.0,SSE,5.8,-,N/A,,Mostly Cloudy,160,2012-10-19 21:19:00
5:31 PM,68.0,64.4,88,29.67,7.0,South,8.1,-,N/A,,Mostly Cloudy,170,2012-10-19 21:31:00
5:49 PM,68.0,64.4,88,29.66,7.0,South,9.2,-,N/A,,Overcast,170,2012-10-19 21:49:00
5:51 PM,68.0,64.0,87,29.66,7.0,South,10.4,-,N/A,,Overcast,170,2012-10-19 21:51:00
6:51 PM,68.0,64.0,87,29.66,10.0,SSE,4.6,-,N/A,,Mostly Cloudy,160,2012-10-19 22:51:00
7:51 PM,66.9,63.0,87,29.66,10.0,SE,4.6,-,N/A,,Partly Cloudy,140,2012-10-19 23:51:00
8:51 PM,66.0,63.0,90,29.66,4.0,SE,4.6,-,N/A,,Partly Cloudy,130,2012-10-20 00:51:00
9:02 PM,66.2,62.6,88,29.66,4.0,SE,4.6,-,N/A,,Mostly Cloudy,130,2012-10-20 01:02:00
9:39 PM,66.2,62.6,88,29.66,4.0,South,5.8,-,N/A,,Overcast,180,2012-10-20 01:39:00
9:51 PM,66.0,63.0,90,29.67,4.0,South,5.8,-,N/A,,Overcast,180,2012-10-20 01:51:00
10:31 PM,66.2,62.6,88,29.67,9.0,South,5.8,-,N/A,,Overcast,170,2012-10-20 02:31:00
10:51 PM,64.9,62.1,90,29.67,8.0,South,3.5,-,N/A,,Scattered Clouds,170,2012-10-20 02:51:00
11:29 PM,62.6,60.8,94,29.67,5.0,Calm,Calm,-,N/A,,Mostly Cloudy,0,2012-10-20 03:29:00
11:51 PM,64.0,62.1,93,29.68,6.0,South,4.6,-,N/A,,Overcast,170,2012-10-20 03:51:00